Home > Weather > Bellingham > Past weeks

Flag for USA Past Weather in Bellingham, Washington, USA — Yesterday and Last 2 Weeks

Now
63 °F

Sunny.


Feels Like: 63 °F
Forecast: 48 / 67 °F
Wind: 8 mph from South

Location: Bellingham International Airport

Current Time: May 29, 2016 at 6:08:29 PM

Latest Report: May 29, 2016 at 4:53 PM


Visibility: 10 mi

Pressure: 30.18 "Hg

Humidity: 56%

Dew Point: 47 °F

Location of BellinghamLocation

Past Weather in Bellingham — Graph

°F

Bellingham Temperature Yesterday

Maximum temperature yesterday: 58 °F (at 3:53 PM)
Minimum temperature yesterday: 49 °F (at 4:53 AM)
Average temperature yesterday: 54 °F

High & Low Weather Summary for the Past Weeks

 TemperatureHumidityPressure
High68 °F (May 17, 4:53 PM)93% (May 19, 12:53 AM)30.31 "Hg (May 19, 12:53 AM)
Low46 °F (May 20, 12:53 AM)52% (May 20, 4:53 PM)29.73 "Hg (May 21, 2:53 AM)
Average56 °F74%30.02 "Hg
* Reported May 14 5:53 PM — May 29 4:53 PM, Bellingham, Weather by CustomWeather, © 2016

Note: Actual official high and low records may vary slightly from our data, if they occured in-between our weather recording intervals... More about our weather records

Advertising

Bellingham Weather History for the Previous 24 Hours

Scroll right to see more
 ConditionsComfort  
Time TempWeatherWind HumidityBarometerVisibility
4:53 PM
Sun, May 29
63 °FSunny.8 mph56%30.18 "Hg10 mi
3:53 PM62 °FSunny.9 mph56%30.18 "Hg10 mi
2:53 PM63 °FSunny.6 mph60%30.17 "Hg10 mi
1:53 PM61 °FPassing clouds.6 mph62%30.17 "Hg10 mi
12:53 PM59 °FPassing clouds.9 mph69%30.16 "Hg10 mi
11:53 AM57 °FBroken clouds.7 mph74%30.16 "Hg10 mi
10:53 AM56 °FScattered clouds.9 mph77%30.14 "Hg10 mi
9:53 AM54 °FCloudy.10 mph83%30.13 "Hg10 mi
8:53 AM53 °FMostly cloudy.7 mph89%30.11 "Hg10 mi
7:53 AM52 °FLight rain. Mostly cloudy.10 mph89%30.09 "Hg10 mi
6:53 AM53 °FMostly cloudy.8 mph89%30.08 "Hg10 mi
5:53 AM53 °FLight rain. Overcast.7 mph93%30.06 "Hg10 mi
4:53 AM53 °FPartly cloudy.7 mph93%30.05 "Hg10 mi
3:53 AM54 °FLight rain. Mostly cloudy.9 mph90%30.04 "Hg10 mi
2:53 AM54 °FPassing clouds.5 mph90%30.03 "Hg10 mi
1:53 AM54 °FMostly cloudy.8 mph93%30.03 "Hg10 mi
12:53 AM55 °FMostly cloudy.5 mph90%30.02 "Hg10 mi
11:53 PM
Sat, May 28
55 °FOvercast.10 mph90%30.02 "Hg10 mi
10:53 PM56 °FOvercast.10 mph87%30.02 "Hg7 mi
9:53 PM56 °FLight rain. Fog.10 mph87%30.02 "Hg5 mi
8:53 PM57 °FMostly cloudy.9 mph81%30.01 "Hg10 mi
8:04 PM57 °FLight rain. Cloudy.13 mph83%29.98 "Hg7 mi
6:53 PM57 °FMostly cloudy.13 mph81%29.98 "Hg10 mi
Weather by CustomWeather, © 2016

See weather overviewHow to use our weather pages